PAKSAT-MM1

Last updated on Sun Jun 21 2026 00:03:09 GMT+0000 (Coordinated Universal Time)

1 59915U 24104A 26170.96614214 .00000148 00000+0 00000+0 0 9990 2 59915 0.0325 88.0434 0002459 347.0422 219.0963 1.00266668 7552
UTC large
Height (km)
Speed (km/s)
/
Latitude / Longitude
Inclination (degrees)
Orbital Period (minutes)
Azimuth
Elevation
Range (km)
Doppler Factor

Next 0 passes for location: London (51.5072 / 0.1276)

No passes found over London.
PAKSAT-MM1